{"data":{"norad_id":46743,"intl_designator":"2020-074E","name":"STARLINK-1892","alt_names":[],"object_type":"PAYLOAD","status":"ACTIVE","operator":null,"country":"US","launch_date":"2020-10-24","launch_site_code":"AFETR","launch_vehicle":null,"mission":null,"orbit_class":"UNKNOWN","rcs_meters":null,"size_class":null,"mass_kg":null,"dimensions":null,"purposes":["comms"],"wikipedia_slug":null,"has_3d_model":false,"image_url":null,"decayed_at":null,"tle_current":{"epoch":"2026-05-25T02:34:36.609888Z","epoch_age_seconds":66564,"freshness":"FRESH","line1":"1 46743U 20074E   26145.10736817  .00084609  00000+0  81200-3 0  9998","line2":"2 46743  53.0405 282.0316 0006047 291.7242  68.3129 15.65903895308998","mean_motion":15.65903895,"eccentricity":0.0006047,"inclination_deg":53.0405,"raan_deg":282.0316,"arg_perigee_deg":291.7242,"mean_anomaly_deg":68.3129,"bstar":0.000812,"rev_number":30899,"period_min":91.959666528577,"perigee_km":366.55943544798,"apogee_km":374.72140686113,"semimajor_km":6748.7774211546,"source":"CELESTRAK","updated_at":"2026-05-25T13:38:16.518799Z"}}}